Location: Newark
(46.9000°N, 28.3500°E)
Time: 14:17:49
(UTC+00:00)

Vanguard 1 Rocket - Pass Details

Date: 03 September 2019
Orbit: 652 x 4225 km, 34.3° (Epoch: 15 September)

Event Time Altitude Azimuth Distance (km) Brightness Sun altitude
Rises 18:44:44 0° 204° (SSW) 5,583 11.3 -19.8°
Enters shadow 18:51:39 - 178° (S) 3,787 10.2 -20.7°
Reaches altitude 10° 18:52:57 10° 171° (S) 3,533 - -20.9°
Maximum altitude 18:54:25 11° 161° (SSE) 3,308 - -21.1°
Drops below altitude 10° 18:55:47 10° 150° (SSE) 3,177 - -21.3°
Sets 19:01:02 0° 111° (ESE) 3,525 - -22.0°
